Helicity
59 64 61 64 65 67 75 83 92 98 102 112 123 127 102 63 -21 -27 14 21 -6 -17 -29 37 27 5 2 9 -2 -1 16 16 19 22 18 60 48 16 35 23 19 55 10 48 96
68 76 80 78 76 79 79 86 90 94 103 117 131 147 125 62 -41 14 44 32 14 -0 -10 5 13 -6 10 11 17 3 -4 -6 97 66 41 27 28 22 33 -2 -4 74 47 41 51
73 82 92 97 101 103 97 92 94 95 93 98 111 137 135 30 -36 113 44 22 4 -13 -19 -11 -11 -4 -1 20 40 34 19 51 48 54 89 57 35 9 9 14 -4 98 114 87 43
84 90 94 96 93 96 93 85 74 69 63 67 81 102 132 -15 73 53 35 37 18 -0 -4 10 13 11 24 40 64 42 23 51 61 91 53 42 44 44 12 12 133 130 82 57 72
90 96 105 103 101 97 89 83 73 61 46 40 43 60 33 8 104 48 18 11 3 21 36 50 29 57 41 73 48 22 54 83 47 44 43 54 46 27 47 133 113 76 48 23 29
93 98 105 110 102 94 89 76 57 46 26 16 10 32 3 45 56 43 37 24 17 25 34 35 74 82 45 72 72 103 70 48 38 35 47 131 78 57 17 105 81 61 26 19 18
105 101 100 104 101 90 80 60 26 4 7 5 -0 -4 6 72 66 75 70 49 50 49 63 69 72 70 99 55 125 72 49 36 38 45 110 99 35 -0 53 37 51 42 34 16 26
108 105 103 97 87 74 70 50 12 -4 5 7 2 -10 21 88 73 109 85 76 71 76 77 71 63 68 73 70 64 34 48 60 21 60 48 28 94 1 49 68 33 34 37 31 21
112 103 100 94 83 74 48 25 -5 -3 -12 -22 -7 7 39 38 71 63 65 94 55 51 58 62 53 60 56 60 67 34 65 36 45 52 27 48 82 35 22 35 35 31 10 41 20
110 108 103 88 83 94 54 -3 9 -1 -17 -13 8 -1 71 105 59 49 38 27 48 49 24 6 51 60 37 25 148 278 261 120 118 41 45 66 96 52 26 28 45 36 25 45 115
104 112 110 107 85 94 61 7 16 5 36 75 107 79 111 89 37 74 43 25 14 19 22 36 49 33 104 158 216 141 86 85 41 28 57 44 58 19 13 10 5 54 129 160 203
117 111 116 114 83 93 38 71 87 87 56 99 118 104 99 78 60 110 47 40 56 39 93 42 8 135 147 108 65 57 58 48 48 37 71 40 28 11 1 18 188 211 249 220 143
126 122 118 106 60 45 100 105 89 72 64 122 142 132 111 97 129 140 101 52 80 55 62 55 44 133 86 47 44 50 48 69 82 56 37 12 37 16 17 184 207 256 267 136 80
134 132 119 88 49 73 72 79 66 61 57 103 65 103 89 70 77 97 82 48 52 122 64 74 132 87 60 40 76 63 99 109 55 59 67 55 71 39 5 201 213 309 152 103 100
138 130 110 102 83 77 77 48 38 34 100 112 94 74 59 64 76 58 53 21 105 62 20 144 82 67 34 112 98 50 108 58 52 57 59 59 110 58 21 92 245 279 166 120 124
153 142 101 66 70 73 46 20 34 77 129 85 62 50 40 77 70 53 50 36 32 23 29 69 62 78 102 52 71 48 52 48 42 58 124 27 121 92 43 160 284 254 191 165 154
166 163 86 78 91 58 35 51 95 122 83 82 100 97 106 80 71 80 79 76 101 44 45 70 93 196 70 43 59 77 88 89 118 107 137 54 127 101 39 207 312 256 222 194 174
161 146 114 108 74 67 58 96 134 158 125 107 50 57 70 84 82 82 48 54 72 75 47 81 99 134 180 102 89 45 68 106 160 131 123 90 159 94 204 269 271 256 245 181 169
133 108 107 121 90 63 105 156 135 124 112 59 57 42 62 82 98 46 88 99 77 94 105 84 78 148 93 58 47 122 94 167 173 107 118 113 68 64 260 229 225 257 245 230 171
129 115 110 130 84 86 118 123 102 128 90 79 60 84 86 81 53 70 60 72 62 79 60 109 79 87 138 67 9 54 75 143 115 160 161 185 120 103 168 88 196 209 165 102 68
168 111 147 126 84 137 125 98 93 108 103 114 100 94 112 77 94 80 111 71 64 70 58 66 83 113 112 62 87 135 150 155 142 234 238 229 223 137 131 95 105 88 61 67 55
206 160 127 106 126 154 95 124 130 70 107 112 118 123 85 81 82 83 78 115 86 71 85 133 113 108 48 12 49 186 170 167 200 187 288 313 347 149 72 111 54 49 18 3 40
199 133 95 128 147 113 138 126 138 81 88 95 119 106 83 73 75 70 91 99 89 85 128 151 104 95 106 199 113 168 258 242 197 190 280 315 408 112 17 27 57 51 45 40 43
208 159 148 141 204 141 82 95 125 145 104 124 115 90 73 70 84 97 71 75 72 70 129 100 104 102 151 164 164 158 161 155 136 188 91 108 50 10 20 45 51 65 56 51 53
217 205 211 142 115 128 79 91 113 106 94 78 92 70 65 82 80 81 88 102 50 69 63 82 100 75 119 107 118 113 74 -6 32 22 70 30 36 43 46 58 93 86 18 20 26
153 137 153 137 91 103 123 80 87 150 94 85 89 71 83 88 100 117 90 90 85 114 49 76 109 100 101 44 96 92 41 -24 -8 18 61 58 92 27 34 32 74 43 49 73 100
90 116 173 119 82 90 78 96 87 124 124 149 77 84 94 158 139 130 101 84 74 72 79 78 124 142 162 136 91 85 28 70 98 95 107 84 80 30 33 38 52 29 31 156 34
Wind_Speed
30 32 33 35 37 38 40 41 43 43 44 45 46 47 47 45 40 31 36 39 41 43 43 22 27 39 32 32 29 26 13 7 21 23 34 38 38 31 39 25 28 35 33 45 37
31 33 35 37 39 41 43 44 45 46 47 48 49 50 51 49 40 32 40 42 43 45 47 47 44 44 32 30 30 24 26 32 42 41 38 42 40 43 43 35 34 21 34 54 63
33 35 37 39 41 43 45 46 48 49 50 51 52 53 53 49 38 33 39 40 42 45 48 46 45 41 35 35 35 36 29 49 39 43 47 47 44 46 44 35 35 47 50 57 57
34 37 39 42 44 46 47 49 50 51 52 53 54 55 55 39 39 37 39 42 45 46 46 45 43 43 42 41 38 39 40 40 46 47 48 52 54 54 46 51 51 52 53 59 62
36 38 41 44 47 49 51 52 53 54 55 55 55 56 49 41 36 39 44 42 48 47 46 49 49 49 45 49 52 43 43 46 47 49 50 54 52 48 52 46 50 55 59 60 62
37 40 43 46 49 51 54 56 57 58 58 57 56 58 47 52 39 44 47 47 40 46 47 48 47 51 51 48 49 58 55 56 50 54 54 49 50 56 54 42 56 62 64 66 66
39 42 45 48 51 53 56 58 58 56 56 54 53 49 50 48 44 48 48 48 47 47 51 49 48 49 56 57 48 50 61 57 52 44 46 49 56 53 46 47 66 69 67 68 64
41 44 47 50 52 56 59 59 55 53 53 51 50 48 52 42 45 51 54 51 45 45 46 46 44 47 48 50 57 57 52 62 41 38 53 48 64 57 66 62 71 71 71 63 62
42 45 48 51 53 58 59 58 52 52 50 50 47 46 51 37 46 52 49 51 52 43 39 41 37 43 49 56 63 52 59 55 56 61 66 64 72 81 76 70 73 72 71 62 65
40 45 48 51 54 59 59 51 49 52 44 45 44 48 43 49 58 54 48 50 51 45 42 39 42 48 48 51 67 72 71 69 73 73 74 74 78 85 85 83 84 79 65 62 55
40 44 48 51 53 58 53 44 44 42 42 48 53 54 51 58 41 48 54 50 42 41 50 43 53 53 60 58 62 65 66 69 66 72 71 72 80 86 84 76 69 59 47 54 61
41 45 48 51 49 53 46 41 41 43 53 46 48 47 46 48 47 48 54 43 41 51 40 44 47 48 51 56 57 59 67 70 70 70 76 81 82 74 65 57 45 48 49 56 62
43 46 48 47 45 42 40 43 40 37 50 42 43 43 42 42 42 50 50 42 44 47 47 50 49 56 56 57 58 58 65 70 77 81 74 76 76 67 58 39 41 45 51 55 59
42 45 46 44 40 41 42 42 38 35 51 39 33 37 41 36 36 45 45 40 37 44 47 43 46 49 51 54 56 61 66 70 76 80 81 72 90 66 50 28 38 49 53 59 62
41 41 41 37 39 40 40 39 33 29 59 35 34 35 37 36 38 40 42 37 41 45 41 42 46 51 55 53 57 65 64 66 65 68 77 70 64 69 48 31 38 48 54 59 62
38 39 39 34 34 35 37 31 28 35 53 32 34 36 31 37 37 39 39 38 40 43 38 43 42 43 52 55 46 55 60 64 55 54 66 67 60 67 57 47 41 46 52 58 64
35 36 37 34 37 39 33 28 33 42 34 35 37 34 32 37 38 39 40 44 43 46 38 46 42 38 45 54 40 50 74 82 77 62 69 57 71 67 67 44 42 46 52 59 66
38 40 35 34 38 34 29 29 41 40 40 35 35 33 36 41 39 39 36 37 44 49 50 48 48 40 46 50 56 59 53 66 82 84 85 80 81 82 49 40 37 44 51 60 68
39 38 40 38 37 31 35 36 40 40 35 33 31 35 34 31 35 32 37 40 42 46 48 53 45 40 40 51 50 51 56 59 65 68 77 73 72 55 36 41 45 51 57 66 74
41 44 42 40 33 32 42 47 43 36 34 33 36 37 34 31 28 34 36 36 37 40 41 45 58 44 42 54 45 39 56 66 58 82 95 79 91 93 64 46 45 61 68 73 80
46 49 38 32 30 34 47 45 37 30 31 36 36 35 34 34 34 35 38 36 35 38 41 46 42 46 49 50 59 55 62 62 65 64 86 97 85 59 71 65 69 71 75 88 95
44 55 33 28 37 39 43 37 36 29 31 36 38 36 30 28 31 34 35 37 33 40 46 45 49 62 60 55 55 56 61 63 72 84 82 93 96 83 97 83 93 97 108 116 113
42 43 31 35 47 45 36 34 34 33 30 33 32 30 27 27 35 30 29 29 35 39 44 52 46 74 56 47 45 57 59 69 74 79 92 103 109 91 106 115 119 124 124 120 115
38 46 35 40 43 43 36 34 33 35 37 34 27 26 25 27 29 32 27 30 38 40 44 49 46 51 69 73 78 88 83 79 78 88 93 95 103 98 99 103 103 105 104 96 93
41 45 39 44 45 42 35 33 33 33 38 33 34 28 26 37 33 32 35 37 36 38 44 46 56 60 68 78 80 81 80 73 75 76 83 94 96 85 82 87 80 71 70 81 69
41 39 39 40 35 35 36 42 34 32 33 37 42 30 32 35 36 38 40 40 44 40 45 47 61 72 78 74 74 81 72 70 71 69 69 72 82 75 76 72 75 71 61 54 61
37 38 44 38 35 37 41 38 37 30 42 43 38 36 37 40 40 43 45 46 46 47 50 55 57 71 74 73 88 86 62 64 64 63 69 81 80 72 72 71 68 56 59 53 34
Wind_Direction
295 295 297 299 300 300 300 301 301 302 303 303 303 304 305 302 299 359 348 332 334 321 313 53 36 359 17 11 13 12 35 37 2 3 347 354 354 357 352 353 356 353 354 338 350
296 296 297 297 298 299 301 301 301 302 302 302 302 301 302 302 319 346 332 329 331 326 336 340 345 345 5 9 8 11 357 350 341 337 339 337 341 342 342 343 343 352 345 325 313
296 297 298 297 297 298 299 300 301 301 302 302 303 302 300 305 330 343 337 339 337 330 330 337 341 350 355 355 353 351 346 337 341 337 332 332 332 333 332 332 331 337 329 329 329
295 297 299 299 298 297 296 297 298 299 301 302 303 304 298 324 325 340 340 339 336 339 338 341 344 342 340 340 344 340 338 337 332 333 331 328 328 326 326 322 331 328 327 325 324
295 299 299 300 302 301 300 298 297 297 299 301 304 307 318 322 331 340 331 336 328 334 336 335 335 334 332 331 328 328 329 331 329 327 325 325 326 328 327 330 329 326 324 324 323
293 297 301 303 303 303 304 303 302 303 304 307 310 309 321 310 334 334 330 330 336 333 332 332 332 330 326 327 324 322 321 321 323 319 322 324 325 322 319 331 324 323 321 322 322
292 296 299 302 303 304 305 304 306 310 312 316 318 322 314 314 330 330 332 327 326 325 322 326 327 325 323 321 328 323 319 319 319 321 325 329 320 323 329 322 324 320 320 319 322
291 295 298 300 302 301 302 304 308 314 316 319 320 322 313 329 327 330 328 327 332 327 323 322 324 320 319 320 317 315 314 318 328 331 328 322 317 320 322 318 315 318 317 320 320
289 293 298 301 304 306 306 307 309 311 314 318 322 321 312 335 330 329 332 328 328 333 334 332 328 319 320 316 314 314 310 314 316 319 320 318 315 314 314 313 314 316 316 318 319
296 298 302 302 304 307 305 312 312 310 315 317 319 316 322 317 322 322 329 327 326 327 327 330 326 317 315 313 316 320 318 316 314 318 317 317 314 313 312 311 309 311 314 318 325
301 304 307 307 307 309 313 321 316 316 319 310 311 310 317 320 328 328 326 324 324 325 318 323 322 317 322 326 324 321 318 316 319 319 319 318 316 315 316 316 316 322 334 331 328
302 306 309 310 315 312 318 316 319 316 308 317 315 317 321 325 320 330 329 327 326 317 329 321 318 330 329 325 322 321 318 317 320 321 320 317 316 320 324 328 339 338 336 332 332
300 303 307 310 314 319 325 317 325 325 309 314 318 318 325 328 325 328 332 331 326 321 319 315 317 330 325 323 322 322 321 322 320 320 319 319 318 323 326 337 346 345 339 338 336
301 302 306 308 314 317 314 325 328 327 306 306 321 322 324 327 323 333 335 333 336 331 331 328 331 331 330 328 328 324 327 324 321 321 320 326 316 324 329 338 340 340 340 337 338
299 302 306 312 311 311 318 326 331 329 294 325 328 334 331 324 328 336 339 337 333 332 335 335 331 330 328 330 330 323 328 326 324 320 320 322 316 321 329 318 337 339 338 338 339
299 299 298 307 315 320 321 325 325 306 293 324 327 323 328 332 331 334 336 342 337 330 333 330 338 339 336 332 335 335 333 329 323 320 317 322 321 323 329 328 328 333 337 338 336
295 299 294 304 300 309 311 311 299 292 319 316 318 323 326 327 330 333 338 340 336 334 335 334 339 349 349 341 346 342 334 327 326 327 319 332 322 319 319 321 322 325 330 334 335
287 288 293 304 303 306 302 294 287 301 296 311 317 321 317 321 329 331 336 338 348 335 330 335 334 352 352 348 340 335 336 331 323 322 320 320 314 318 327 327 324 327 330 331 331
283 283 284 296 297 296 284 281 286 288 303 308 316 312 320 330 328 339 340 335 345 355 336 333 336 353 349 341 342 344 333 336 326 321 317 320 319 320 325 322 324 326 327 326 327
276 273 277 289 290 281 272 276 282 295 304 307 303 308 315 330 336 334 335 347 349 357 357 345 331 345 347 340 335 326 333 332 328 320 317 319 319 320 328 324 325 322 324 324 324
267 266 280 286 278 272 269 278 285 299 304 301 302 309 314 321 329 329 331 343 348 351 351 344 337 338 338 336 335 334 327 324 319 315 315 315 316 334 329 324 317 314 317 318 317
265 258 274 268 263 269 270 281 290 295 300 300 298 306 318 328 328 329 331 339 352 348 342 346 339 329 328 326 331 334 331 328 321 318 313 311 302 318 313 322 319 314 313 312 313
259 261 267 260 259 260 276 281 287 290 294 296 304 315 322 323 321 331 339 350 346 345 343 343 339 331 340 345 343 338 337 330 323 317 311 309 308 315 311 310 310 308 309 309 309
256 250 260 257 271 262 267 275 283 292 286 297 310 317 320 319 325 329 333 337 334 335 337 337 333 327 322 324 324 320 322 321 319 315 316 312 315 320 320 319 318 317 315 313 314
255 255 260 256 257 264 268 274 275 286 288 293 301 303 309 311 316 322 323 324 330 331 333 333 327 325 323 323 323 322 324 323 320 318 314 317 317 322 325 330 333 332 332 330 325
250 258 258 261 263 258 266 269 272 286 287 289 295 300 303 307 310 322 318 322 325 332 330 330 326 326 324 327 329 327 326 325 323 324 321 322 319 325 328 330 331 331 336 338 333
260 261 262 262 262 260 267 271 272 282 287 294 295 295 300 307 315 317 317 316 320 323 325 325 330 330 329 335 331 329 339 339 335 331 327 323 324 327 326 329 331 329 334 344 344